Change the Weather History Date:

Friday, October 19, 2012

  Actual Average Record
Temperature  
Mean Temperature 56 °F 57 °F  
Max Temperature 68 °F 69 °F 86 °F (1979)
Min Temperature 44 °F 46 °F 23 °F (1917)
Degree Days  
Heating Degree Days 9 8  
Month to date heating degree days 124 116  
Since 1 July heating degree days 140 159  
Cooling Degree Days 0 1  
Month to date cooling degree days 10 32  
Year to date cooling degree days 2265 1681  
Growing Degree Days 6 (Base 50)    
Moisture  
Dew Point 24 °F    
Average Humidity 39    
Maximum Humidity 58    
Minimum Humidity 19    
Precipitation  
Precipitation 0.00 in 0.09 in 0.67 in (1908)
Month to date precipitation 0.32 1.84  
Year to date precipitation 24.12 29.07  
Snow  
Snow 0.00 in 0.00 in 0.00 in (2007)
Month to date snowfall 0.0 0.0  
Since 1 July snowfall 0.0 0.0  
Since 1 September snowfall 0.0 0.0  
Snow Depth 0.00 in    
Sea Level Pressure  
Sea Level Pressure 29.86 in    
Wind  
Wind Speed 14 mph (NW)    
Max Wind Speed 28 mph    
Max Gust Speed 35 mph    
Visibility 10 miles    
Events      
T = Trace of Precipitation, MM = Missing Value Source: NWS Daily Summary

Daily Weather History Graph

Daily Weather History Graph

Search for Another Location

Airport or City:

Trip Planner

Search our weather history database for the weather conditions in past years. The results will help you decide how hot, cold, wet, or windy it might be!

Date:

Astronomy

Oct. 19, 2012 Rise Set
Actual Time 7:42 AM CDT 6:46 PM CDT
Civil Twilight 7:15 AM CDT 7:12 PM CDT
Nautical Twilight 6:45 AM CDT 7:43 PM CDT
Astronomical Twilight 6:14 AM CDT 8:13 PM CDT
Moon 12:22 PM CDT (10/19) 10:29 PM CDT (10/19)
Length of Visible Light 11h 57m
Length of Day
11h 03m
Waxing Crescent, 24% of the Moon is Illuminated
Oct 19
Waxing Crescent
Oct 21
First Quarter
Oct 29
Full
Nov 6
Last Quarter
Nov 13
New

Hourly Weather History & Observations

Time (CDT) Temp. Windchill Dew Point Humidity Pressure Visibility Wind Dir Wind Speed Gust Speed Precip Events Conditions
12:53 AM 54.0 °F - 23.0 °F 30% 29.84 in 8.0 mi WNW 16.1 mph - N/A   Clear
1:53 AM 54.0 °F - 23.0 °F 30% 29.84 in 9.0 mi NW 19.6 mph - N/A   Clear
2:53 AM 52.0 °F - 23.0 °F 32% 29.84 in 10.0 mi WNW 16.1 mph - N/A   Clear
3:53 AM 51.1 °F - 24.1 °F 35% 29.84 in 10.0 mi WNW 16.1 mph 23.0 mph N/A   Clear
4:53 AM 50.0 °F - 23.0 °F 35% 29.85 in 10.0 mi WNW 17.3 mph 24.2 mph N/A   Clear
5:53 AM 48.9 °F - 21.9 °F 35% 29.86 in 10.0 mi WNW 17.3 mph 25.3 mph N/A   Clear
6:53 AM 48.0 °F - 19.9 °F 33% 29.87 in 10.0 mi WNW 18.4 mph 27.6 mph N/A   Clear
7:53 AM 46.9 °F - 19.0 °F 33% 29.87 in 10.0 mi NW 19.6 mph - N/A   Clear
8:53 AM 48.9 °F - 18.0 °F 29% 29.89 in 10.0 mi NW 20.7 mph 27.6 mph N/A   Clear
9:53 AM 53.1 °F - 21.0 °F 29% 29.91 in 10.0 mi NW 25.3 mph 31.1 mph N/A   Clear
10:53 AM 55.9 °F - 23.0 °F 28% 29.92 in 10.0 mi NW 21.9 mph 25.3 mph N/A   Clear
11:53 AM 59.0 °F - 27.0 °F 29% 29.92 in 10.0 mi NW 21.9 mph 29.9 mph N/A   Clear
12:53 PM 61.0 °F - 28.0 °F 29% 29.91 in 10.0 mi WNW 19.6 mph 25.3 mph N/A   Clear
1:53 PM 64.0 °F - 27.0 °F 25% 29.88 in 10.0 mi NNW 18.4 mph - N/A   Partly Cloudy
2:53 PM 66.0 °F - 25.0 °F 21% 29.86 in 10.0 mi WNW 12.7 mph 20.7 mph N/A   Partly Cloudy
3:53 PM 66.9 °F - 23.0 °F 19% 29.84 in 10.0 mi WNW 16.1 mph 23.0 mph N/A   Partly Cloudy
4:53 PM 68.0 °F - 24.1 °F 19% 29.83 in 10.0 mi NNW 13.8 mph 17.3 mph N/A   Partly Cloudy
5:53 PM 66.0 °F - 23.0 °F 20% 29.83 in 10.0 mi NW 8.1 mph - N/A   Scattered Clouds
6:53 PM 61.0 °F - 24.1 °F 24% 29.83 in 10.0 mi WNW 5.8 mph - N/A   Scattered Clouds
7:53 PM 55.9 °F - 25.0 °F 30% 29.84 in 10.0 mi Calm Calm - N/A   Partly Cloudy
8:53 PM 46.9 °F - 30.0 °F 52% 29.84 in 10.0 mi Calm Calm - N/A   Partly Cloudy
9:53 PM 48.0 °F - 28.0 °F 46% 29.84 in 10.0 mi Calm Calm - N/A   Partly Cloudy
10:53 PM 45.0 °F - 30.0 °F 56% 29.84 in 10.0 mi Calm Calm - N/A   Partly Cloudy
11:53 PM 46.0 °F 44.8 °F 28.9 °F 51% 29.84 in 10.0 mi SE 3.5 mph - N/A   Partly Cloudy